TimeCST,TemperatureF,Dew PointF,Humidity,Sea Level PressureIn,VisibilityMPH,Wind Direction,Wind SpeedMPH,Gust SpeedMPH,PrecipitationIn,Events,Conditions,WindDirDegrees,DateUTC
12:53 AM,9.0,7.0,92,30.20,4.0,Calm,Calm,-,0.01,,Mostly Cloudy,0,2012-12-28 06:53:00
1:15 AM,5.0,3.2,92,30.14,1.5,Calm,Calm,-,N/A,,Clear,0,2012-12-28 07:15:00
1:24 AM,8.6,3.2,79,30.14,0.5,Calm,Calm,-,N/A,,Haze,0,2012-12-28 07:24:00
1:32 AM,6.8,5.0,92,30.13,0.2,Calm,Calm,-,N/A,Fog,Light Freezing Fog,0,2012-12-28 07:32:00
1:38 AM,6.8,3.2,85,30.13,1.0,Calm,Calm,-,N/A,,Mist,0,2012-12-28 07:38:00
1:40 AM,5.0,1.4,85,30.13,3.0,Calm,Calm,-,N/A,,Partly Cloudy,0,2012-12-28 07:40:00
1:53 AM,3.0,-0.9,84,30.19,7.0,Calm,Calm,-,N/A,,Scattered Clouds,0,2012-12-28 07:53:00
2:01 AM,6.8,1.4,79,30.13,1.5,Calm,Calm,-,N/A,,Haze,0,2012-12-28 08:01:00
2:09 AM,6.8,3.2,85,30.13,0.5,Calm,Calm,-,N/A,Fog,Light Freezing Fog,0,2012-12-28 08:09:00
2:26 AM,5.0,1.4,85,30.13,0.2,Calm,Calm,-,N/A,Fog,Light Freezing Fog,0,2012-12-28 08:26:00
2:39 AM,3.2,1.4,92,30.13,0.2,Calm,Calm,-,N/A,Fog,Light Freezing Fog,0,2012-12-28 08:39:00
2:50 AM,3.2,-0.4,85,30.13,0.2,Calm,Calm,-,N/A,Fog,Light Freezing Fog,0,2012-12-28 08:50:00
2:53 AM,3.9,-0.0,84,30.20,0.2,Calm,Calm,-,N/A,Fog,Light Freezing Fog,0,2012-12-28 08:53:00
3:10 AM,5.0,1.4,85,30.13,0.5,Calm,Calm,-,N/A,Fog,Light Freezing Fog,0,2012-12-28 09:10:00
3:20 AM,3.2,-0.4,85,30.13,1.2,Calm,Calm,-,N/A,,Overcast,0,2012-12-28 09:20:00
3:24 AM,3.2,-0.4,85,30.13,3.0,Calm,Calm,-,N/A,,Mostly Cloudy,0,2012-12-28 09:24:00
3:53 AM,7.0,1.0,77,30.19,3.0,Calm,Calm,-,N/A,,Overcast,0,2012-12-28 09:53:00
4:53 AM,6.8,1.4,79,30.12,5.0,Calm,Calm,-,N/A,,Haze,0,2012-12-28 10:53:00
5:31 AM,5.0,-0.4,78,30.11,5.0,Calm,Calm,-,N/A,,Haze,0,2012-12-28 11:31:00
5:53 AM,6.1,1.0,80,30.17,6.0,Calm,Calm,-,N/A,,Haze,0,2012-12-28 11:53:00
6:53 AM,5.0,-0.0,80,30.17,7.0,Calm,Calm,-,N/A,,Mostly Cloudy,0,2012-12-28 12:53:00
7:02 AM,6.8,1.4,79,30.10,1.8,Calm,Calm,-,N/A,,Overcast,0,2012-12-28 13:02:00
7:11 AM,6.8,1.4,79,30.11,4.0,Calm,Calm,-,N/A,,Overcast,0,2012-12-28 13:11:00
7:53 AM,3.0,-2.0,80,30.17,5.0,Calm,Calm,-,N/A,,Haze,0,2012-12-28 13:53:00
8:39 AM,1.4,-2.2,85,30.11,1.8,Calm,Calm,-,N/A,,Clear,0,2012-12-28 14:39:00
8:51 AM,3.2,-2.2,78,30.11,2.5,Calm,Calm,-,N/A,,Haze,0,2012-12-28 14:51:00
8:53 AM,3.0,-2.0,80,30.18,3.0,Calm,Calm,-,N/A,,Haze,0,2012-12-28 14:53:00
9:00 AM,1.4,-2.2,85,30.11,1.8,Calm,Calm,-,N/A,,Mostly Cloudy,0,2012-12-28 15:00:00
9:11 AM,1.4,-4.0,78,30.11,2.0,Calm,Calm,-,N/A,,Haze,0,2012-12-28 15:11:00
9:15 AM,-0.4,-4.0,85,30.11,0.5,Calm,Calm,-,N/A,,Overcast,0,2012-12-28 15:15:00
9:18 AM,-0.4,-4.0,85,30.11,0.2,Calm,Calm,-,N/A,,Overcast,0,2012-12-28 15:18:00
9:53 AM,3.0,-0.0,87,30.19,0.8,SSE,3.5,-,N/A,,Mist,150,2012-12-28 15:53:00
10:00 AM,3.2,1.4,92,30.11,2.5,SE,3.5,-,N/A,,Overcast,130,2012-12-28 16:00:00
10:20 AM,8.6,6.8,92,30.11,2.5,Calm,Calm,-,N/A,,Scattered Clouds,0,2012-12-28 16:20:00
10:28 AM,8.6,5.0,85,30.11,3.0,Calm,Calm,-,N/A,,Partly Cloudy,0,2012-12-28 16:28:00
10:39 AM,10.4,6.8,85,30.11,2.5,Calm,Calm,-,N/A,,Clear,0,2012-12-28 16:39:00
10:53 AM,8.6,3.2,79,30.11,2.5,Calm,Calm,-,N/A,,Haze,0,2012-12-28 16:53:00
11:53 AM,10.0,5.0,80,30.16,4.0,West,5.8,-,N/A,,Haze,270,2012-12-28 17:53:00
12:53 PM,12.9,7.0,77,30.15,5.0,WSW,4.6,-,N/A,,Haze,240,2012-12-28 18:53:00
1:53 PM,12.9,7.0,77,30.14,5.0,SW,5.8,-,N/A,,Haze,220,2012-12-28 19:53:00
2:07 PM,12.2,8.6,85,30.06,2.0,WSW,6.9,-,0.00,Snow,Light Snow,250,2012-12-28 20:07:00
2:25 PM,12.2,8.6,85,30.06,3.0,SW,6.9,-,0.00,,Overcast,230,2012-12-28 20:25:00
2:49 PM,12.2,6.8,79,30.06,2.0,SSW,5.8,-,0.00,,Haze,210,2012-12-28 20:49:00
2:53 PM,12.0,7.0,80,30.13,2.5,SSW,6.9,-,0.00,,Haze,200,2012-12-28 20:53:00
2:58 PM,12.2,6.8,79,30.06,3.0,SSW,6.9,-,N/A,,Haze,210,2012-12-28 20:58:00
3:05 PM,12.2,6.8,79,30.06,4.0,SSW,6.9,-,N/A,,Haze,210,2012-12-28 21:05:00
3:13 PM,12.2,8.6,85,30.06,4.0,SW,6.9,-,N/A,,Haze,220,2012-12-28 21:13:00
3:29 PM,14.0,8.6,79,30.06,2.0,SSW,8.1,-,N/A,,Haze,210,2012-12-28 21:29:00
3:53 PM,14.0,9.0,80,30.12,2.0,SW,9.2,-,N/A,,Haze,220,2012-12-28 21:53:00
4:04 PM,14.0,8.6,79,30.06,4.0,SW,10.4,-,N/A,,Haze,220,2012-12-28 22:04:00
4:53 PM,15.1,10.0,80,30.13,5.0,SW,6.9,-,N/A,,Haze,230,2012-12-28 22:53:00
5:53 PM,14.0,10.0,84,30.13,6.0,SW,6.9,-,N/A,,Overcast,220,2012-12-28 23:53:00
6:53 PM,14.0,10.0,84,30.13,3.0,SW,9.2,-,0.00,,Overcast,220,2012-12-29 00:53:00
7:53 PM,12.9,8.1,81,30.13,6.0,SSW,8.1,-,N/A,,Haze,210,2012-12-29 01:53:00
8:29 PM,8.6,5.0,85,30.05,7.0,SSW,6.9,-,N/A,,Scattered Clouds,200,2012-12-29 02:29:00
8:53 PM,8.1,3.9,83,30.13,8.0,SSW,5.8,-,N/A,,Mostly Cloudy,210,2012-12-29 02:53:00
9:53 PM,8.1,3.9,83,30.12,7.0,South,8.1,-,N/A,,Mostly Cloudy,190,2012-12-29 03:53:00
10:53 PM,5.0,1.0,84,30.12,5.0,SSW,6.9,-,N/A,,Mostly Cloudy,200,2012-12-29 04:53:00
11:53 PM,7.0,1.9,80,30.10,9.0,SSW,5.8,-,N/A,,Mostly Cloudy,200,2012-12-29 05:53:00